This demonstration page uses our WeatherBlox Daily Observations layout. Learn more.

Left ArrowRight Arrow

39.51506, -84.39828

Hourly Observations for May 7, 2016

Temp ( °F °C ) Dew Point ( °F °C ) Humidity (%) Winds ( mph kmh ) Pressure ( in mb ) Visibility ( mi km ) Precip ( " mm )
12:15 am 00:15 Clear 49 9.6 43 5.9 78 78 N N/A 29.88 1012 10 16 N/A
12:35 am 00:35 Clear 49 9.6 43 6 78 78 undefined N/A 29.88 1012 10 16 N/A
12:55 am 00:55 Clear 49 9.6 43 6 78 78 N N/A 29.88 1012 10 16 N/A
1:15 am 01:15 Clear 49 9.6 43 6 78 78 undefined N/A 29.88 1012 10 16 N/A
1:35 am 01:35 Clear 49 9.6 43 6.3 80 80 N N/A 29.88 1012 10 16 N/A
1:55 am 01:55 Clear 49 9.6 43 6.3 80 80 N N/A 29.88 1012 10 16 N/A
2:15 am 02:15 Mostly Cloudy 49 9.6 44 6.4 81 81 N N/A 29.85 1011 10 16 N/A
2:35 am 02:35 Mostly Cloudy 49 9.6 43 6 78 78 N N/A 29.85 1011 10 16 N/A
2:55 am 02:55 Cloudy 49 9.6 43 6.3 80 80 N N/A 29.85 1011 10 16 N/A
3:15 am 03:15 Mostly Cloudy 49 9.6 43 6.3 80 80 N N/A 29.85 1011 10 16 N/A
3:35 am 03:35 Mostly Cloudy 49 9.6 43 6.3 80 80 N N/A 29.85 1011 10 16 N/A
3:55 am 03:55 Partly Cloudy 49 9.6 43 6.3 80 80 N N/A 29.85 1011 10 16 N/A
4:15 am 04:15 Clear 49 9.6 44 6.5 81 81 N N/A 29.85 1011 10 16 N/A
4:35 am 04:35 Clear 49 9.6 44 6.5 81 81 N N/A 29.85 1011 10 16 N/A
4:55 am 04:55 Clear 49 9.6 44 6.5 81 81 N N/A 29.83 1010 10 16 N/A
5:15 am 05:15 Clear 49 9.6 44 6.6 82 82 N N/A 29.83 1010 10 16 N/A
5:35 am 05:35 Clear 49 9.6 44 6.6 82 82 W 3 6 29.83 1010 10 16 N/A
5:55 am 05:55 Partly Cloudy 49 9.6 44 6.6 82 82 N N/A 29.83 1010 10 16 N/A
6:15 am 06:15 Partly Cloudy 49 9.6 44 6.5 81 81 N N/A 29.83 1010 10 16 N/A
6:35 am 06:35 Sunny 49 9.6 44 6.5 81 81 N N/A 29.83 1010 10 16 N/A
6:55 am 06:55 Sunny 49 9.6 44 6.5 81 81 undefined N/A 29.83 1010 10 16 N/A
7:15 am 07:15 Sunny 51 10.3 45 7 80 80 WSW 5 7 29.83 1010 10 16 N/A
7:35 am 07:35 Sunny 52 11 46 7.5 79 79 undefined N/A 29.83 1010 10 16 N/A
7:55 am 07:55 Sunny 55 12.5 47 8.2 75 75 undefined N/A 29.83 1010 10 16 N/A
8:15 am 08:15 Sunny 57 13.8 47 8.3 70 70 undefined N/A 29.77 1008 10 16 N/A
8:35 am 08:35 Sunny 57 13.8 46 8 68 68 undefined N/A 29.77 1008 10 16 N/A
8:55 am 08:55 Sunny 60 15.3 47 8.1 62 62 undefined N/A 29.77 1008 10 16 N/A
9:15 am 09:15 Sunny 61 16 46 7.8 58 58 undefined N/A 29.77 1008 10 16 N/A
9:35 am 09:35 Sunny 64 18 47 8.5 54 54 undefined N/A 29.77 1008 10 16 N/A
9:55 am 09:55 Sunny 67 19.5 49 9.5 53 53 undefined N/A 29.77 1008 10 16 N/A
10:15 am 10:15 Sunny 69 20.8 51 10.5 52 52 SSW 7 11 29.77 1008 10 16 N/A
10:35 am 10:35 Partly Cloudy 69 20.8 51 10.5 52 52 W 6 9 29.77 1008 10 16 N/A
10:55 am 10:55 Partly Cloudy 69 20.8 51 10.8 53 53 undefined N/A 29.77 1008 10 16 N/A
11:15 am 11:15 Sunny 69 20.8 52 10.9 53 53 SSW 6 9 29.77 1008 10 16 N/A
11:35 am 11:35 Partly Cloudy 69 20.8 50 10 50 50 SSW 9 15 29.77 1008 10 16 N/A
11:55 am 11:55 Mostly Cloudy 70 20.9 49 9.5 48 48 WSW 9 15 29.77 1008 10 16 N/A
12:15 pm 12:15 Cloudy 72 22.3 51 10.5 47 47 SSW 8 13 29.74 1007 10 16 N/A
12:35 pm 12:35 Cloudy 74 23.6 51 10.6 44 44 NNW 12 19 29.74 1007 10 16 N/A
12:55 pm 12:55 Cloudy 74 23.6 51 10.5 44 44 SSW 9 15 29.74 1007 10 16 N/A
1:15 pm 13:15 Partly Cloudy 76 24.5 51 10.4 41 41 W 12 19 29.74 1007 10 16 N/A
1:35 pm 13:35 Partly Cloudy 77 24.9 50 10.1 39 39 NNW 17 28 29.74 1007 10 16 N/A
1:55 pm 13:55 Mostly Cloudy 74 23.6 50 10 42 42 WSW 14 22 29.74 1007 10 16 N/A
2:15 pm 14:15 Partly Cloudy 77 25.1 50 10.2 39 39 NW 14 22 29.74 1007 10 16 N/A
2:35 pm 14:35 Partly Cloudy 76 24.6 51 10.4 41 41 NNW 15 24 29.74 1007 10 16 N/A
2:55 pm 14:55 Partly Cloudy 74 23.6 51 10.6 44 44 NW 13 20 29.74 1007 10 16 N/A
3:15 pm 15:15 Mostly Cloudy 74 23.6 51 10.8 45 45 WNW 9 15 29.74 1007 10 16 N/A
3:35 pm 15:35 Partly Cloudy 74 23.6 52 10.9 45 45 WSW 7 11 29.71 1006 10 16 N/A
3:55 pm 15:55 Sunny 74 23.6 52 10.9 45 45 undefined N/A 29.71 1006 10 16 N/A
4:15 pm 16:15 Partly Cloudy 74 23.6 53 11.4 46 46 W 10 17 29.71 1006 10 16 N/A
4:35 pm 16:35 Partly Cloudy 77 25.1 54 12.2 45 45 WSW 9 15 29.71 1006 10 16 N/A
4:55 pm 16:55 Sunny 78 25.3 52 11.3 42 42 WSW 22 35 29.68 1005 10 16 N/A
5:15 pm 17:15 Sunny 77 25.1 49 9.7 38 38 W 15 24 29.71 1006 10 16 N/A
5:35 pm 17:35 Sunny 77 24.8 50 9.9 39 39 WNW 14 22 29.71 1006 10 16 N/A
5:55 pm 17:55 Partly Cloudy 76 24.4 51 10.7 42 42 W 13 20 29.71 1006 10 16 N/A
6:15 pm 18:15 Partly Cloudy 74 23.6 52 10.9 45 45 W 15 24 29.71 1006 10 16 N/A
6:35 pm 18:35 Mostly Cloudy 74 23.6 51 10.8 45 45 W 14 22 29.71 1006 10 16 N/A
6:55 pm 18:55 Partly Cloudy 74 23.6 51 10.5 44 44 NNW 18 30 29.71 1006 10 16 N/A
7:15 pm 19:15 Sunny 74 23.6 52 11.1 45 45 NNW 10 17 29.74 1007 10 16 N/A
7:35 pm 19:35 Partly Cloudy 74 23.6 55 12.5 50 50 undefined N/A 29.74 1007 10 16 N/A
7:55 pm 19:55 Sunny 69 20.8 51 10.4 52 52 NNW 16 26 29.74 1007 10 16 N/A
8:15 pm 20:15 Sunny 69 20.8 51 10.8 53 53 NNW 14 22 29.77 1008 10 16 N/A
8:35 pm 20:35 Partly Cloudy 69 20.8 50 10 50 50 NNW 13 20 29.77 1008 10 16 N/A
8:55 pm 20:55 Clear 69 20.8 49 9.4 48 48 NNW 10 17 29.77 1008 10 16 N/A
9:15 pm 21:15 Clear 69 20.8 49 9.7 49 49 NNW 9 15 29.77 1008 10 16 N/A
9:35 pm 21:35 Partly Cloudy 69 20.5 49 9.4 49 49 undefined N/A 29.80 1009 10 16 N/A
9:55 pm 21:55 Mostly Cloudy 67 19.5 48 8.8 50 50 NNW 7 11 29.80 1009 10 16 N/A
10:15 pm 22:15 Partly Cloudy 64 18 45 7.1 49 49 undefined N/A 29.80 1009 10 16 N/A
10:35 pm 22:35 Mostly Cloudy 64 18 44 6.5 47 47 undefined N/A 29.80 1009 10 16 N/A
10:55 pm 22:55 Cloudy 63 17.1 42 5.6 47 47 undefined N/A 29.80 1009 10 16 N/A
11:15 pm 23:15 Mostly Cloudy 62 16.6 39 3.7 42 42 NNW 8 13 29.80 1009 10 16 N/A
11:35 pm 23:35 Mostly Cloudy 61 16 32 0.1 34 34 undefined N/A 29.80 1009 10 16 N/A
11:55 pm 23:55 Cloudy 61 15.9 31 -0.3 33 33 NNW 5 7 29.83 1010 10 16 N/A

Powered by AerisWeather